Skip Page Navigation
NASA JPL Caltech
NASA Logo - Jet Propulsion Laboratory + View the NASA Portal
+ Near-Earth Object (NEO) Program
Search JPL
JPL Home Earth Solar System Stars & Galaxies Technology
JPL Solar System Dynamics
BODIES ORBITS EPHEMERIDES TOOLS PHYSICAL DATA DISCOVERY FAQ SITE MAP
JPL Small-Body Database Browser
Search: [ help ]  
(2002 KG4)
Classification: Apollo [NEO, PHA]          SPK-ID: 3127232
Ephemeris | Orbit Diagram | Orbital Elements | Physical Parameters | Close-Approach Data ]

[ hide orbit diagram ]
Orbit Diagram
Note: Make sure you have Java enabled on your browser to see the applet. This applet is provided as a 3D orbit visualization tool. The applet was implemented using 2-body methods, and hence should not be used for determining accurate long-term trajectories (over several years or decades) or planetary encounter circumstances. For accurate long-term ephemerides, please instead use our Horizons system.
Orbit Viewer

Additional Notes: the orbits shown in the applet are color coded. The planets are white lines, and the asteroid/comet is a blue line. The bright white line indicates the portion of the orbit that is above the ecliptic plane, and the darker portion is below the ecliptic plane. Likewise for the asteroid/comet orbit, the light blue indicates the portion above the ecliptic plane, and the dark blue the portion below the ecliptic plane.

Orbit Viewer applet originally written and kindly provided by Osamu Ajiki (AstroArts), and further modified by Ron Baalke (JPL).


Orbital Elements at Epoch 2456400.5 (2013-Apr-18.0) TDB
Reference: JPL 13 (heliocentric ecliptic J2000)
 Element Value Uncertainty (1-sigma)   Units 
e .6625616506159154 0.00031361  
a 2.933188022854166 0.0024701 AU
q .9897701248650763 8.6393e-05 AU
i 27.60965047165775 0.0080661 deg
node 64.51990957621449 0.00029614 deg
peri 149.7398634385485 0.0018413 deg
M 65.26033528391521 1.1076 deg
tp 2456067.874851650373
(2012-May-20.37485165)
5.2252 JED
period 1834.882595759193
5.02
2.3178
0.006346
d
yr
n .1961978389418687 0.00024783 deg/d
Q 4.876605920843256 0.0041066 AU
  Orbit Determination Parameters
   # obs. used (total)      183  
   data-arc span      31 days  
   first obs. used      2002-05-22  
   last obs. used      2002-06-22  
   planetary ephem.      DE405  
   SB-pert. ephem.      SB405-CPV-2  
   condition code      7  
   fit RMS      .76287  
   data source      ORB  
   producer      Otto Matic  
   solution date      2011-Sep-14 19:46:04  

Additional Information
 Earth MOID = .0310198 AU 
 T_jup = 2.771 
[ show covariance matrix ]

Ephemeris | Orbit Diagram | Orbital Elements | Physical Parameters | Close-Approach Data ]

Physical Parameter Table
Parameter Symbol Value Units Sigma Reference Notes
absolute magnitude H 20.877 mag 1.1272 13 autocmod 2.5a

[ show close-approach data ]
Ephemeris | Orbit Diagram | Orbital Elements | Physical Parameters | Close-Approach Data ]
ABOUT SSD CREDITS/AWARDS PRIVACY/COPYRIGHT GLOSSARY LINKS
FirstGov 2013-May-24 09:32 UT
(server date/time)  
NASA Home Page
Site Manager:   Donald K. Yeomans
Webmaster  Alan B. Chamberlin